WZZ7DM LJLJ-EVRA

Flight info

Callsign WZZ7DM
Flight time N/A
Altitude 38000
Route MODRO1Z MODRO DCT LUPIX DCT VALLU DCT GBG DCT SNU DCT LEDVA DCT KATQA DCT UPLAV DCT TUSIN DCT LOBMU DCT OVBOR DCT EVINA DCT GESDU DCT WAR DCT UVROB DCT ASBIM DCT SUW DCT BOKSU DCT KNA DCT CUZVO/N0449F360 DCT ERIVA ERIVA2R
Aircraft A321/M-V/N

Departure

Time 2026-05-04 14:29
Airport Ljubljana Jože Pučnik Airport (LJLJ)

Arrival

Time N/A
Airport Riga International Airport (EVRA)
Time Latitude Longitude Altitude Speed Heading
2026-05-04 14:14 46.23174 14.45125 1260 ft 0 kts 36°
2026-05-04 14:21 46.23158 14.45108 1264 ft 4 kts 36°
2026-05-04 14:21 46.23136 14.45085 1268 ft 4 kts 36°
2026-05-04 14:21 46.23137 14.45086 1268 ft 4 kts 36°
2026-05-04 14:22 46.23144 14.45093 1267 ft 0 kts 36°
2026-05-04 14:23 46.23149 14.45093 1268 ft 1 kts
2026-05-04 14:24 46.23150 14.45080 1266 ft 2 kts 261°
2026-05-04 14:24 46.23153 14.45025 1259 ft 9 kts 297°
2026-05-04 14:24 46.23151 14.44944 1268 ft 8 kts 220°
2026-05-04 14:24 46.23109 14.44902 1265 ft 6 kts 216°
2026-05-04 14:25 46.23090 14.44873 1266 ft 2 kts 236°
2026-05-04 14:25 46.23089 14.44869 1269 ft 0 kts 243°
2026-05-04 14:25 46.23088 14.44867 1269 ft 1 kts 246°
2026-05-04 14:26 46.23088 14.44818 1268 ft 11 kts 286°
2026-05-04 14:26 46.23149 14.44697 1276 ft 17 kts 308°
2026-05-04 14:26 46.23223 14.44555 1272 ft 19 kts 304°
2026-05-04 14:26 46.23302 14.44390 1278 ft 20 kts 303°
2026-05-04 14:27 46.23383 14.44237 1283 ft 18 kts 304°
2026-05-04 14:27 46.23362 14.44098 1287 ft 15 kts 210°
2026-05-04 14:27 46.23253 14.44090 1284 ft 17 kts 170°
2026-05-04 14:27 46.23202 14.44135 1281 ft 0 kts 128°
2026-05-04 14:28 46.23192 14.44154 1281 ft 19 kts 128°
2026-05-04 14:28 46.22953 14.44621 1270 ft 94 kts 126°
2026-05-04 14:28 46.22436 14.45636 1255 ft 155 kts 126°
2026-05-04 14:28 46.21711 14.47052 1436 ft 182 kts 126°
2026-05-04 14:29 46.20272 14.49973 2649 ft 191 kts 116°
2026-05-04 14:29 46.20793 14.53703 3460 ft 217 kts 38°
2026-05-04 14:30 46.22073 14.55044 3588 ft 242 kts 33°
2026-05-04 14:30 46.23547 14.56532 3665 ft 275 kts 30°
2026-05-04 14:30 46.26847 14.59724 4863 ft 291 kts 31°
2026-05-04 14:31 46.28518 14.61323 5723 ft 288 kts 31°
2026-05-04 14:31 46.31874 14.64733 7397 ft 287 kts 33°
2026-05-04 14:32 46.35153 14.68256 8593 ft 308 kts 36°
2026-05-04 14:32 46.36759 14.70296 8510 ft 298 kts 53°
2026-05-04 14:32 46.37578 14.72949 8382 ft 285 kts 85°
2026-05-04 14:32 46.37290 14.75638 8184 ft 263 kts 126°
2026-05-04 14:33 46.35971 14.77365 7634 ft 268 kts 166°
2026-05-04 14:33 46.34108 14.77418 7305 ft 267 kts 198°
2026-05-04 14:33 46.32329 14.77041 7251 ft 260 kts 188°
2026-05-04 14:33 46.30484 14.76912 6868 ft 267 kts 191°
2026-05-04 14:34 46.28874 14.75927 6622 ft 247 kts 218°
2026-05-04 14:34 46.27531 14.74520 6499 ft 231 kts 219°
2026-05-04 14:34 46.26258 14.73241 6268 ft 218 kts 213°
2026-05-04 14:34 46.24925 14.72238 5964 ft 213 kts 209°
2026-05-04 14:35 46.23608 14.71387 5760 ft 203 kts 206°
2026-05-04 14:35 46.22348 14.70593 5474 ft 192 kts 207°
2026-05-04 14:35 46.21171 14.69846 5338 ft 176 kts 206°
2026-05-04 14:35 46.20080 14.69139 4930 ft 172 kts 208°
2026-05-04 14:36 46.19000 14.68431 4569 ft 169 kts 209°
2026-05-04 14:36 46.17935 14.67729 4142 ft 168 kts 210°
2026-05-04 14:36 46.16870 14.67023 3717 ft 168 kts 209°
2026-05-04 14:36 46.15923 14.66137 3522 ft 155 kts 231°
2026-05-04 14:37 46.15457 14.64804 3512 ft 148 kts 261°
2026-05-04 14:37 46.15566 14.63343 3506 ft 152 kts 288°
2026-05-04 14:37 46.16009 14.61946 3377 ft 153 kts 277°
2026-05-04 14:37 46.16058 14.60458 3132 ft 148 kts 266°
2026-05-04 14:38 46.16113 14.58999 2949 ft 144 kts 278°
2026-05-04 14:38 46.16505 14.57675 2772 ft 143 kts 294°
2026-05-04 14:38 46.17010 14.56454 2478 ft 141 kts 297°
2026-05-04 14:38 46.17551 14.55285 2325 ft 140 kts 298°
2026-05-04 14:39 46.18118 14.54132 2163 ft 141 kts 300°
2026-05-04 14:39 46.18696 14.52985 2050 ft 142 kts 299°
2026-05-04 14:39 46.19285 14.51818 1919 ft 143 kts 298°
2026-05-04 14:40 46.20487 14.49418 1525 ft 151 kts 302°
2026-05-04 14:40 46.21117 14.48201 1369 ft 148 kts 302°
2026-05-04 14:40 46.21718 14.47040 1230 ft 134 kts 303°
2026-05-04 14:40 46.22120 14.46237 1243 ft 66 kts 307°
2026-05-04 14:41 46.22366 14.45765 1248 ft 53 kts 310°
2026-05-04 14:41 46.22593 14.45403 1253 ft 41 kts 328°
2026-05-04 14:41 46.22766 14.45327 1260 ft 9 kts 351°
2026-05-04 14:42 46.22805 14.45318 1258 ft 3 kts 349°
2026-05-04 14:42 46.22828 14.45321 1263 ft 2 kts 28°
2026-05-04 14:42 46.22824 14.45332 1260 ft 2 kts 120°
2026-05-04 14:43 46.22802 14.45377 1264 ft 8 kts 125°
2026-05-04 14:43 46.22787 14.45443 1263 ft 6 kts 53°
2026-05-04 14:43 46.22819 14.45485 1257 ft 6 kts 37°
2026-05-04 14:43 46.22860 14.45511 1262 ft 6 kts
2026-05-04 14:44 46.22901 14.45501 1262 ft 6 kts 317°
2026-05-04 14:44 46.22930 14.45448 1268 ft 7 kts 305°
2026-05-04 14:44 46.22963 14.45387 1260 ft 8 kts 311°
2026-05-04 14:44 46.22999 14.45390 1263 ft 3 kts 44°
2026-05-04 14:45 46.23022 14.45414 1264 ft 4 kts 39°
2026-05-04 14:45 46.23026 14.45418 1258 ft 0 kts 38°